| time (UTC) | temp C | wind direction | speed KPH | gust KPH | rain 1hr cm | rain 24hr cm | rain mn cm | humidity % | barometer mb |
| 20260506001406 | 9 | 332 | 4.8 | 4.8 | 0.00 | 0.00 | 0.00 | 85 | 1010.8 |
| 20260506000405 | 9 | 346 | 11.3 | 11.3 | 0.00 | 0.00 | 0.00 | 84 | 1010.9 |
| 20260505235444 | 9 | 354 | 1.6 | 6.4 | 0.00 | 0.00 | 0.00 | 84 | 1010.9 |
| 20260505234403 | 10 | 346 | 3.2 | 8.0 | 0.00 | 0.00 | 0.00 | 83 | 1010.9 |
| 20260505233402 | 10 | 336 | 3.2 | 4.8 | 0.00 | 0.00 | 0.00 | 83 | 1011.1 |
| 20260505232541 | 10 | 335 | 3.2 | 4.8 | 0.00 | 0.00 | 0.00 | 83 | 1011.2 |
| 20260505231540 | 10 | 343 | 8.0 | 8.0 | 0.00 | 0.00 | 0.00 | 82 | 1011.2 |
| 20260505230458 | 10 | 10 | 3.2 | 4.8 | 0.00 | 0.00 | 0.00 | 82 | 1011.3 |
| 20260505225537 | 10 | 343 | 3.2 | 3.2 | 0.00 | 0.00 | 0.00 | 82 | 1011.3 |
| 20260505224456 | 10 | 306 | 1.6 | 3.2 | 0.00 | 0.00 | 0.00 | 82 | 1011.4 |
| 20260505223455 | 10 | 346 | 3.2 | 3.2 | 0.00 | 0.00 | 0.00 | 83 | 1011.4 |
| 20260505222533 | 9 | 331 | 3.2 | 3.2 | 0.00 | 0.00 | 0.00 | 83 | 1011.4 |
| 20260505221452 | 9 | 341 | 1.6 | 6.4 | 0.00 | 0.00 | 0.00 | 83 | 1011.5 |
| 20260505220451 | 9 | 0.0 | 1.6 | 0.00 | 0.00 | 0.00 | 83 | 1011.5 | |
| 20260505215449 | 9 | 0.0 | 1.6 | 0.00 | 0.00 | 0.00 | 83 | 1011.6 | |
| 20260505214448 | 9 | 156 | 1.6 | 1.6 | 0.00 | 0.00 | 0.00 | 83 | 1011.5 |
| 20260505213447 | 9 | 0.0 | 3.2 | 0.00 | 0.00 | 0.00 | 83 | 1011.5 | |
| 20260505212526 | 9 | 0.0 | 0.0 | 0.00 | 0.00 | 0.00 | 83 | 1011.6 | |
| 20260505211445 | 10 | 332 | 4.8 | 6.4 | 0.00 | 0.00 | 0.00 | 83 | 1011.7 |
| 20260505210444 | 10 | 0.0 | 4.8 | 0.00 | 0.00 | 0.00 | 83 | 1011.7 | |
| 20260505205442 | 10 | 344 | 4.8 | 4.8 | 0.00 | 0.00 | 0.00 | 82 | 1011.6 |
| 20260505204441 | 10 | 334 | 8.0 | 9.7 | 0.00 | 0.00 | 0.00 | 82 | 1011.5 |
| 20260505203440 | 10 | 335 | 3.2 | 4.8 | 0.00 | 0.00 | 0.00 | 82 | 1011.8 |
| 20260505202439 | 10 | 5 | 3.2 | 3.2 | 0.00 | 0.00 | 0.00 | 82 | 1011.9 |
| 20260505201518 | 10 | 338 | 9.7 | 11.3 | 0.00 | 0.00 | 0.00 | 81 | 1011.8 |
| 20260505200437 | 10 | 342 | 1.6 | 4.8 | 0.00 | 0.00 | 0.00 | 81 | 1011.8 |
| 20260505195435 | 10 | 329 | 3.2 | 8.0 | 0.00 | 0.00 | 0.00 | 81 | 1011.9 |
| 20260505194434 | 11 | 0.0 | 4.8 | 0.00 | 0.00 | 0.00 | 81 | 1011.6 | |
| 20260505193433 | 11 | 311 | 4.8 | 4.8 | 0.00 | 0.00 | 0.00 | 81 | 1011.6 |
| 20260505192431 | 11 | 350 | 6.4 | 11.3 | 0.00 | 0.00 | 0.00 | 80 | 1011.6 |
| 20260505191430 | 11 | 335 | 3.2 | 8.0 | 0.00 | 0.00 | 0.00 | 80 | 1011.4 |
| 20260505190429 | 11 | 347 | 6.4 | 16.1 | 0.00 | 0.00 | 0.00 | 80 | 1011.3 |
| 20260505185507 | 11 | 339 | 3.2 | 6.4 | 0.00 | 0.00 | 0.00 | 80 | 1011.2 |
| 20260505184427 | 11 | 356 | 3.2 | 8.0 | 0.00 | 0.00 | 0.00 | 79 | 1011.0 |
| 20260505183505 | 12 | 313 | 6.4 | 9.7 | 0.00 | 0.00 | 0.00 | 78 | 1011.2 |
| 20260505182424 | 12 | 299 | 6.4 | 9.7 | 0.00 | 0.00 | 0.00 | 77 | 1010.9 |
| 20260505181423 | 12 | 336 | 8.0 | 8.0 | 0.00 | 0.00 | 0.00 | 76 | 1010.9 |
| 20260505180422 | 12 | 0 | 4.8 | 6.4 | 0.00 | 0.00 | 0.00 | 76 | 1010.8 |
| 20260505175420 | 12 | 321 | 6.4 | 11.3 | 0.00 | 0.00 | 0.00 | 75 | 1010.8 |
| 20260505174419 | 12 | 323 | 6.4 | 19.3 | 0.00 | 0.00 | 0.00 | 75 | 1010.9 |
| 20260505173417 | 12 | 336 | 9.7 | 11.3 | 0.00 | 0.00 | 0.00 | 74 | 1010.7 |
| 20260505172416 | 13 | 339 | 4.8 | 6.4 | 0.00 | 0.00 | 0.00 | 74 | 1011.0 |
| 20260505171415 | 13 | 333 | 11.3 | 12.9 | 0.00 | 0.00 | 0.00 | 73 | 1010.9 |
| 20260505170414 | 13 | 340 | 9.7 | 17.7 | 0.00 | 0.00 | 0.00 | 73 | 1011.1 |
| 20260505165413 | 13 | 33 | 1.6 | 3.2 | 0.00 | 0.00 | 0.00 | 73 | 1011.1 |
| 20260505164432 | 13 | 358 | 3.2 | 4.8 | 0.00 | 0.00 | 0.00 | 72 | 1011.2 |
| 20260505163410 | 13 | 359 | 6.4 | 6.4 | 0.00 | 0.00 | 0.00 | 73 | 1011.2 |
| 20260505162429 | 13 | 334 | 8.0 | 11.3 | 0.00 | 0.00 | 0.00 | 73 | 1011.2 |
| 20260505161408 | 14 | 345 | 11.3 | 17.7 | 0.00 | 0.00 | 0.00 | 73 | 1011.2 |
| 20260505160407 | 14 | 325 | 6.4 | 6.4 | 0.00 | 0.00 | 0.00 | 73 | 1011.1 |
| 20260505152402 | 15 | 66 | 3.2 | 8.0 | 0.00 | 0.00 | 0.00 | 75 | 1011.5 |
| 20260505151400 | 15 | 34 | 1.6 | 1.6 | 0.00 | 0.00 | 0.00 | 77 | 1011.4 |
| 20260505150359 | 15 | 0.0 | 0.0 | 0.00 | 0.00 | 0.00 | 76 | 1011.5 | |
| 20260505140352 | 14 | 0.0 | 3.2 | 0.00 | 0.00 | 0.00 | 78 | 1011.8 | |
| 20260505124342 | 13 | 10 | 4.8 | 4.8 | 0.00 | 0.00 | 0.00 | 81 | 1012.6 |
| 20260505123341 | 13 | 119 | 1.6 | 4.8 | 0.00 | 0.00 | 0.00 | 81 | 1012.6 |
| 20260505122340 | 13 | 0 | 1.6 | 3.2 | 0.00 | 0.00 | 0.00 | 82 | 1012.4 |
| 20260505121339 | 13 | 0.0 | 3.2 | 0.00 | 0.00 | 0.00 | 81 | 1012.6 | |
| 20260505120338 | 13 | 30 | 3.2 | 9.7 | 0.00 | 0.00 | 0.00 | 82 | 1012.6 |
| 20260505115336 | 12 | 83 | 3.2 | 3.2 | 0.00 | 0.00 | 0.00 | 83 | 1012.6 |
| 20260505114335 | 12 | 0.0 | 3.2 | 0.00 | 0.00 | 0.00 | 82 | 1012.7 | |
| 20260505113334 | 12 | 13 | 1.6 | 3.2 | 0.00 | 0.00 | 0.00 | 83 | 1012.9 |
| 20260505112333 | 12 | 0.0 | 3.2 | 0.00 | 0.00 | 0.00 | 83 | 1012.8 | |
| 20260505111412 | 12 | 57 | 1.6 | 3.2 | 0.00 | 0.00 | 0.00 | 83 | 1012.7 |
| 20260505110411 | 12 | 0.0 | 1.6 | 0.00 | 0.00 | 0.00 | 83 | 1012.6 | |
| 20260505101324 | 12 | 60 | 1.6 | 6.4 | 0.00 | 0.00 | 0.00 | 84 | 1013.1 |
| 20260505100323 | 12 | 50 | 3.2 | 6.4 | 0.00 | 0.00 | 0.00 | 85 | 1013.0 |
| 20260505095322 | 11 | 6 | 3.2 | 3.2 | 0.00 | 0.00 | 0.00 | 85 | 1013.2 |
| 20260505094321 | 11 | 0 | 4.8 | 9.7 | 0.00 | 0.00 | 0.00 | 86 | 1013.3 |
| 20260505093319 | 11 | 264 | 1.6 | 3.2 | 0.00 | 0.00 | 0.00 | 86 | 1013.2 |
| 20260505092318 | 11 | 278 | 3.2 | 3.2 | 0.00 | 0.00 | 0.00 | 86 | 1013.3 |
| 20260505091317 | 11 | 316 | 3.2 | 3.2 | 0.00 | 0.00 | 0.00 | 86 | 1013.3 |
| 20260505090316 | 11 | 0.0 | 3.2 | 0.00 | 0.00 | 0.00 | 86 | 1013.3 | |
| 20260505085335 | 11 | 352 | 4.8 | 6.4 | 0.00 | 0.00 | 0.00 | 87 | 1013.3 |
| 20260505084313 | 11 | 10 | 3.2 | 3.2 | 0.00 | 0.00 | 0.00 | 87 | 1013.2 |
| 20260505083312 | 11 | 0.0 | 1.6 | 0.00 | 0.00 | 0.00 | 88 | 1013.1 | |
| 20260505082311 | 11 | 285 | 1.6 | 6.4 | 0.00 | 0.00 | 0.00 | 89 | 1013.0 |
| 20260505081310 | 11 | 13 | 3.2 | 6.4 | 0.00 | 0.00 | 0.00 | 89 | 1013.1 |
| 20260505080309 | 10 | 0.0 | 3.2 | 0.00 | 0.00 | 0.00 | 89 | 1013.2 | |
| 20260505075327 | 10 | 287 | 1.6 | 3.2 | 0.00 | 0.00 | 0.00 | 89 | 1013.1 |
| 20260505074346 | 10 | 17 | 8.0 | 9.7 | 0.00 | 0.00 | 0.00 | 90 | 1013.3 |
| 20260505073305 | 10 | 67 | 1.6 | 4.8 | 0.00 | 0.00 | 0.00 | 90 | 1013.1 |
| 20260505072344 | 10 | 11 | 4.8 | 4.8 | 0.00 | 0.00 | 0.00 | 91 | 1013.1 |
| 20260505071303 | 10 | 335 | 6.4 | 6.4 | 0.00 | 0.00 | 0.00 | 91 | 1013.2 |
| 20260505070301 | 10 | 3 | 3.2 | 4.8 | 0.00 | 0.00 | 0.00 | 92 | 1013.2 |
| 20260505065300 | 10 | 333 | 6.4 | 8.0 | 0.00 | 0.00 | 0.00 | 92 | 1013.1 |
| 20260505064259 | 10 | 257 | 3.2 | 6.4 | 0.00 | 0.00 | 0.00 | 92 | 1013.4 |
| 20260505063258 | 10 | 335 | 4.8 | 6.4 | 0.00 | 0.00 | 0.00 | 93 | 1013.3 |
| 20260505062336 | 10 | 281 | 6.4 | 6.4 | 0.00 | 0.00 | 0.00 | 93 | 1013.3 |
| 20260505061255 | 10 | 306 | 3.2 | 4.8 | 0.00 | 0.00 | 0.00 | 93 | 1013.5 |
| 20260505060254 | 10 | 265 | 1.6 | 4.8 | 0.00 | 0.00 | 0.00 | 93 | 1013.6 |
| 20260505055253 | 10 | 338 | 3.2 | 4.8 | 0.00 | 0.00 | 0.00 | 93 | 1013.6 |
| 20260505054251 | 10 | 11 | 6.4 | 6.4 | 0.00 | 0.00 | 0.00 | 93 | 1013.6 |
| 20260505053250 | 10 | 0.0 | 8.0 | 0.00 | 0.00 | 0.00 | 93 | 1013.7 | |
| 20260505052249 | 10 | 1 | 4.8 | 6.4 | 0.00 | 0.00 | 0.00 | 93 | 1013.4 |
| 20260505051248 | 10 | 0.0 | 3.2 | 0.00 | 0.00 | 0.00 | 93 | 1013.4 | |
| 20260505050247 | 10 | 16 | 4.8 | 6.4 | 0.00 | 0.00 | 0.00 | 93 | 1013.4 |
| 20260505041241 | 10 | 19 | 4.8 | 9.7 | 0.00 | 0.00 | 0.00 | 93 | 1013.1 |
| 20260505040240 | 10 | 26 | 8.0 | 8.0 | 0.00 | 0.00 | 0.00 | 92 | 1013.1 |
| 20260505035238 | 10 | 344 | 4.8 | 6.4 | 0.00 | 0.00 | 0.00 | 92 | 1013.2 |
| 20260505034237 | 10 | 190 | 1.6 | 3.2 | 0.00 | 0.00 | 0.00 | 92 | 1013.2 |
| 20260505033236 | 10 | 332 | 9.7 | 9.7 | 0.00 | 0.00 | 0.00 | 92 | 1013.2 |
| 20260505032235 | 10 | 348 | 1.6 | 3.2 | 0.00 | 0.00 | 0.00 | 92 | 1013.5 |
| 20260505031233 | 10 | 0.0 | 4.8 | 0.00 | 0.00 | 0.00 | 92 | 1013.3 | |
| 20260505030232 | 10 | 337 | 3.2 | 8.0 | 0.00 | 0.00 | 0.00 | 92 | 1013.3 |
| 20260505025311 | 10 | 259 | 3.2 | 6.4 | 0.00 | 0.00 | 0.00 | 92 | 1013.3 |
| 20260505024230 | 10 | 3 | 3.2 | 9.7 | 0.00 | 0.00 | 0.00 | 92 | 1013.4 |
| 20260505023229 | 10 | 3 | 9.7 | 12.9 | 0.00 | 0.00 | 0.00 | 92 | 1013.4 |
| 20260505022227 | 10 | 316 | 3.2 | 3.2 | 0.00 | 0.00 | 0.00 | 92 | 1013.3 |
| 20260505021226 | 11 | 327 | 6.4 | 6.4 | 0.00 | 0.00 | 0.00 | 92 | 1013.5 |
| 20260505020225 | 11 | 343 | 1.6 | 1.6 | 0.00 | 0.00 | 0.00 | 92 | 1013.6 |
| 20260505015224 | 11 | 347 | 3.2 | 3.2 | 0.00 | 0.00 | 0.00 | 92 | 1013.3 |
| 20260505014222 | 11 | 333 | 3.2 | 9.7 | 0.00 | 0.00 | 0.00 | 92 | 1013.5 |
| 20260505013221 | 11 | 335 | 3.2 | 6.4 | 0.00 | 0.00 | 0.00 | 92 | 1013.5 |
| 20260505012300 | 11 | 342 | 8.0 | 11.3 | 0.00 | 0.00 | 0.00 | 91 | 1013.8 |
| 20260505011219 | 11 | 350 | 3.2 | 6.4 | 0.00 | 0.00 | 0.00 | 91 | 1013.8 |
| 20260505010218 | 11 | 350 | 4.8 | 9.7 | 0.00 | 0.00 | 0.00 | 91 | 1013.8 |
| 20260505005256 | 11 | 346 | 8.0 | 8.0 | 0.00 | 0.00 | 0.00 | 91 | 1013.9 |
| 20260505004215 | 11 | 340 | 14.5 | 17.7 | 0.00 | 0.00 | 0.00 | 91 | 1013.7 |
| 20260505003214 | 11 | 208 | 3.2 | 6.4 | 0.00 | 0.00 | 0.00 | 91 | 1013.8 |